Regional Weather Roundup
Issued by NWS Charleston, WV

Home | Current Version | Previous Version | Graphics & Text | Print | Product List | Glossary On
Versions: 1 2 3 4 5 6 7 8 9 10 11 12 13 14 15 16 17 18 19 20 21 22 23 24 25 26 27 28 29 30 31 32 33 34 35 36 37 38 39 40 41 42 43 44 45 46 47 48 49 50
000
ASUS41 KRLX 310310
RWRRLX
West Virginia Regional Weather Roundup
National Weather Service Charleston WV
1000 PM EST FRI JAN 30 2015

Note: "fair" indicates few or no clouds below 12,000 feet with no
significant weather and/or obstructions to visibility.

WVZ003-310400-
Northern Panhandle of West Virginia

CITY           SKY/WX    TMP DP  RH WIND       PRES   REMARKS
WHEELING       PTCLDY    11   3  70 W7        30.39S WCI   0
$$

WVZ009-310400-
Northwest West Virginia

CITY           SKY/WX    TMP DP  RH WIND       PRES   REMARKS
PARKERSBURG    CLEAR     18   8  65 NE5       30.46S
$$

WVZ006-310400-
Western West Virginia

CITY           SKY/WX    TMP DP  RH WIND       PRES   REMARKS
HUNTINGTON     CLEAR     22  12  65 CALM      30.44S
$$

WVZ015-310400-
West Central West Virginia

CITY           SKY/WX    TMP DP  RH WIND       PRES   REMARKS
CHARLESTON     CLEAR     22  10  60 NW3       30.43R
$$

WVZ022-031-310400-
North Central West Virginia

CITY           SKY/WX    TMP DP  RH WIND       PRES   REMARKS
CLARKSBURG     CLEAR     15   6  67 NW6       30.39R WCI   6
MORGANTOWN     PTCLDY    15   4  61 W7        30.39R WCI   5
$$

WVZ025-035-042-045-310400-
Southern West Virginia

CITY           SKY/WX    TMP DP  RH WIND       PRES   REMARKS
BECKLEY        CLEAR     15   7  70 NW6       30.30R WCI   6
LOGAN            N/A     21  10  63 CALM      30.38S
BLUEFIELD      CLEAR     19   9  65 NW8       30.28R WCI   9
LEWISBURG      PTCLDY    20  10  63 NW5       30.27S
$$

WVZ047-310400-
Northern Mountains of West Virginia

CITY           SKY/WX    TMP DP  RH WIND       PRES   REMARKS
ELKINS         CLOUDY    15   8  73 NW8       30.32R WCI   4
$$

WVZ052-310400-
Eastern Panhandle of West Virginia

CITY           SKY/WX    TMP DP  RH WIND       PRES   REMARKS
MARTINSBURG    PTCLDY    20   3  48 NW14G21   30.29F WCI   7
PETERSBURG     CLEAR     21   4  46 NW10      30.34S
$$



USA.gov is the U.S. government's official web portal to all federal, state and local government web resources and services.